Location: Clermont
(50.2608°N, 4.3172°E)
Time: 07:09:47
(UTC+00:00)

Cosmos 1733 Rocket - Pass Details

Date: 13 August 2020
Orbit: 603 x 628 km, 82.5° (Epoch: 27 September)

Event Time Altitude Azimuth Distance (km) Brightness Sun altitude
Exits shadow 22:34:31 63° 237° (WSW) 697 3.1 -23.5°
Maximum altitude 22:35:00 70° 281° (WNW) 665 3.2 -23.5°
Drops below altitude 10° 22:39:27 10° 6° (N) 2,009 6.6 -23.7°
Sets 22:41:43 0° 9° (N) 2,924 7.6 -23.8°
